Weather History for Brooksville, FL

Change the Weather History Date:

Thursday, November 22, 2012

  Actual Average Record
Temperature  
Mean Temperature 54 °F -  
Max Temperature 73 °F 74 °F 82 °F (1997)
Min Temperature 35 °F 49 °F 23 °F (2000)
Degree Days  
Heating Degree Days 11    
Growing Degree Days 4 (Base 50)    
Moisture  
Dew Point 39 °F    
Average Humidity 79    
Maximum Humidity 100    
Minimum Humidity 23    
Precipitation  
Precipitation 0.00 in - - ()
Sea Level Pressure  
Sea Level Pressure 30.14 in    
Wind  
Wind Speed 2 mph (NNE)    
Max Wind Speed 16 mph    
Max Gust Speed 26 mph    
Visibility 6 miles    
Events Fog    
Averages and records for this station are not official NWS values.
T = Trace of Precipitation, MM = Missing Value Source: NWS Daily Summary

Daily Weather History Graph

Daily Weather History Graph

Search for Another Location

Airport:

Trip Planner

Search our weather history database for the weather conditions in past years. The results will help you decide how hot, cold, wet, or windy it might be!

Date:

Astronomy

Nov. 22, 2012 Rise Set
Actual Time 6:58 AM EST 5:33 PM EST
Civil Twilight 6:32 AM EST 5:59 PM EST
Nautical Twilight 6:04 AM EST 6:27 PM EST
Astronomical Twilight 5:35 AM EST 6:56 PM EST
Moon 1:56 PM EST (11/22) 1:41 AM EST (11/22)
Length of Visible Light 11h 26m
Length of Day
10h 35m
Waxing Gibbous, 71% of the Moon is Illuminated
Nov 22
Waxing Gibbous
Nov 28
Full
Dec 6
Last Quarter
Dec 13
New
Dec 20
First Quarter

Hourly Weather History & Observations

Time (EST) Temp. Windchill Dew Point Humidity Pressure Visibility Wind Dir Wind Speed Gust Speed Precip Events Conditions
12:36 AM 46.4 °F - 44.6 °F 93% 30.12 in 0.5 mi Calm Calm - N/A Fog Fog
12:53 AM 46.0 °F - 44.1 °F 93% 30.12 in 0.8 mi Calm Calm - N/A   Clear
12:59 AM 44.6 °F - 44.6 °F 100% 30.12 in 2.0 mi Calm Calm - N/A   Clear
1:08 AM 42.8 °F - 42.8 °F 100% 30.12 in 0.8 mi Calm Calm - N/A   Clear
1:34 AM 44.6 °F - 42.8 °F 93% 30.12 in 1.0 mi Calm Calm - N/A   Clear
1:41 AM 44.6 °F - 42.8 °F 93% 30.12 in 0.8 mi Calm Calm - N/A   Clear
1:45 AM 44.6 °F - 42.8 °F 93% 30.12 in 2.0 mi Calm Calm - N/A   Clear
1:53 AM 46.0 °F - 45.0 °F 96% 30.12 in 9.0 mi Calm Calm - N/A   Clear
2:40 AM 41.0 °F - 41.0 °F 100% 30.11 in 1.8 mi Calm Calm - N/A   Clear
2:53 AM 42.1 °F - 41.0 °F 96% 30.11 in 1.5 mi Calm Calm - N/A   Clear
2:58 AM 42.8 °F - 41.0 °F 93% 30.12 in 2.0 mi Calm Calm - N/A   Clear
3:07 AM 42.8 °F - 42.8 °F 100% 30.12 in 1.5 mi Calm Calm - N/A   Clear
3:27 AM 42.8 °F - 41.0 °F 93% 30.12 in 2.5 mi Calm Calm - N/A   Clear
3:34 AM 42.8 °F - 42.8 °F 100% 30.12 in 8.0 mi Calm Calm - N/A   Clear
3:53 AM 41.0 °F 39.0 °F 41.0 °F 100% 30.12 in 10.0 mi North 3.5 mph - N/A   Clear
4:09 AM 37.4 °F - 37.4 °F 100% 30.12 in 1.5 mi Calm Calm - N/A   Clear
4:18 AM 37.4 °F - 37.4 °F 100% 30.12 in 0.5 mi Calm Calm - N/A Fog Fog
4:53 AM 37.9 °F - 37.9 °F 100% 30.12 in 0.2 mi Calm Calm - N/A Fog Fog
5:01 AM 39.2 °F - 39.2 °F 100% 30.12 in 2.5 mi Calm Calm - N/A   Clear
5:08 AM 39.2 °F - 39.2 °F 100% 30.12 in 9.0 mi Calm Calm - N/A   Clear
5:53 AM 39.9 °F - 39.0 °F 97% 30.13 in 10.0 mi Calm Calm - N/A   Clear
6:13 AM 37.4 °F - 35.6 °F 93% 30.14 in 1.5 mi Calm Calm - N/A   Clear
6:22 AM 37.4 °F - 35.6 °F 93% 30.14 in 0.5 mi Calm Calm - N/A Fog Fog
6:39 AM 35.6 °F - 35.6 °F 100% 30.15 in 1.5 mi Calm Calm - N/A   Clear
6:44 AM 37.4 °F - 35.6 °F 93% 30.15 in 2.0 mi Calm Calm - N/A   Clear
6:51 AM 37.4 °F - 35.6 °F 93% 30.16 in 6.0 mi Calm Calm - N/A   Clear
6:53 AM 37.0 °F - 37.0 °F 100% 30.15 in 7.0 mi Calm Calm - N/A   Clear
7:53 AM 46.9 °F - 44.1 °F 90% 30.17 in 10.0 mi Calm Calm - N/A   Clear
8:53 AM 55.9 °F - 45.0 °F 67% 30.19 in 10.0 mi NNE 9.2 mph - N/A   Clear
9:53 AM 62.1 °F - 39.9 °F 44% 30.19 in 10.0 mi NNE 11.5 mph 17.3 mph N/A   Clear
10:53 AM 69.1 °F - 34.0 °F 27% 30.19 in 10.0 mi NNE 8.1 mph - N/A   Clear
11:53 AM 71.1 °F - 32.0 °F 24% 30.17 in 10.0 mi NNE 9.2 mph 18.4 mph N/A   Clear
12:53 PM 72.0 °F - 32.0 °F 23% 30.14 in 10.0 mi NNE 11.5 mph 23.0 mph N/A   Clear
1:53 PM 73.9 °F - 35.1 °F 24% 30.11 in 10.0 mi North 12.7 mph 24.2 mph N/A   Clear
2:53 PM 73.0 °F - 35.1 °F 25% 30.11 in 10.0 mi NNE 16.1 mph 26.5 mph N/A   Clear
3:53 PM 73.0 °F - 36.0 °F 26% 30.12 in 10.0 mi NNE 11.5 mph - N/A   Clear
4:53 PM 69.1 °F - 37.0 °F 31% 30.13 in 10.0 mi NNE 11.5 mph 17.3 mph N/A   Clear
5:53 PM 62.1 °F - 36.0 °F 38% 30.15 in 10.0 mi NNE 4.6 mph - N/A   Clear
6:53 PM 57.9 °F - 37.9 °F 47% 30.17 in 10.0 mi NE 3.5 mph - N/A   Clear
7:53 PM 51.1 °F - 39.9 °F 66% 30.19 in 10.0 mi Calm Calm - N/A   Clear
8:53 PM 44.1 °F - 37.9 °F 79% 30.21 in 10.0 mi Calm Calm - N/A   Clear
9:53 PM 43.0 °F - 37.9 °F 82% 30.22 in 10.0 mi Calm Calm - N/A   Clear
10:53 PM 42.1 °F - 37.9 °F 85% 30.22 in 10.0 mi Calm Calm - N/A   Clear
11:53 PM 39.0 °F - 36.0 °F 89% 30.20 in 10.0 mi Calm Calm - N/A   Clear